Regional Weather Roundup
Issued by NWS

Home | Current Version | Previous Version | Graphics & Text | Print | Product List | Glossary On
Versions: 1 2 3 4 5 6 7 8 9 10 11 12 13 14 15 16 17 18 19 20 21 22 23 24 25 26 27 28 29 30 31 32 33 34 35 36 37 38 39 40 41 42 43 44 45 46 47 48 49 50
000
ASUS43 KBIS 041210
RWRND

NORTH DAKOTA REGIONAL WEATHER ROUNDUP
NATIONAL WEATHER SERVICE BISMARCK ND
700 AM CDT WED MAY 04 2016

NOTE: "FAIR" INDICATES FEW OR NO CLOUDS BELOW 12,000 FEET WITH NO
SIGNIFICANT WEATHER AND/OR OBSTRUCTIONS TO VISIBILITY.


NDZ001>003-009>011-017-041300-
NORTHWEST NORTH DAKOTA

CITY           SKY/WX    TMP DP  RH WIND       PRES   REMARKS
WILLISTON      CLEAR     48  40  73 SW5       30.06S
6HR MIN TEMP:  43; 6HR MAX TEMP:  50;

MINOT          CLOUDY    46  31  55 SE3       30.08R
MINOT AFB      CLOUDY    40  33  76 SE5       30.07S
$$

NDZ018>021-031>035-040>046-041300-
SOUTHWEST NORTH DAKOTA

CITY           SKY/WX    TMP DP  RH WIND       PRES   REMARKS
BISMARCK       CLEAR     37  32  82 CALM      30.12R
6HR MIN TEMP:  35; 6HR MAX TEMP:  48;

DICKINSON      CLEAR     44  34  67 S9        30.09R
GARRISON         N/A     42  34  73 CALM      30.10R
6HR MIN TEMP:  40; 6HR MAX TEMP:  51;

HETTINGER ARPT CLEAR     37  32  82 CALM      30.13S
$$

NDZ004>008-012>016-024-026-027-054-041300-
NORTHEAST NORTH DAKOTA

CITY           SKY/WX    TMP DP  RH WIND       PRES   REMARKS
GRAND FORKS    CLEAR     37  32  82 NW5       30.08R
GRND FRKS AFB  CLEAR     37  32  81 NW7       30.08R
DEVILS LAKE    CLEAR     36  34  92 W5        30.11R
$$

NDZ022-023-025-028>030-036>039-047>053-041300-
SOUTHEAST NORTH DAKOTA

CITY           SKY/WX    TMP DP  RH WIND       PRES   REMARKS
FARGO          CLEAR     39  29  67 N8        30.07R
6HR MIN TEMP:  35; 6HR MAX TEMP:  50;

JAMESTOWN      CLEAR     36  31  82 NW8       30.09R
$$





USA.gov is the U.S. government's official web portal to all federal, state and local government web resources and services.